Waarnemingen

Advertentie
Mijn weer
Antwerpen, België (6450): temperatuur & dauwpunt: 15.06.2018 02:00:00 - 21.06.2018 02:00:00 (CEST)Antwerpen, België (6450): windsnelheid & windstoten: 15.06.2018 02:00:00 - 21.06.2018 02:00:00 (CEST)Antwerpen, België (6450): windrichting: 15.06.2018 02:00:00 - 21.06.2018 02:00:00 (CEST)Antwerpen, België (6450): luchtdruk: 15.06.2018 02:00:00 - 21.06.2018 02:00:00 (CEST)Antwerpen, België (6450): zicht: 15.06.2018 02:00:00 - 21.06.2018 02:00:00 (CEST)
Datum & Tijd tt [°C] td [°C] ff [km/u] ff [kn] fx [km/u] fx [kn] dd ppp [hPa] vv [km]
21.06.2018 02:00:00 18,6 14,1 14 8 - - WZW 1017,5 45
21.06.2018 01:00:00 19,8 13,7 9 5 22 12 ZW 1017,7 10
21.06.2018 00:00:00 20,9 13,6 15 8 25 14 W 1018,2 10
20.06.2018 23:00:00 21,6 15,0 8 4 - - WZW 1018,3 10
20.06.2018 22:00:00 23,0 14,7 11 6 22 12 W 1018,2 10
20.06.2018 21:00:00 24,5 14,3 13 7 25 14 WZW 1018,3 10
20.06.2018 20:00:00 25,4 13,7 15 8 - - W 1018,6 10
20.06.2018 19:00:00 26,1 14,6 15 8 29 16 W 1018,9 10
20.06.2018 18:00:00 26,2 14,5 15 8 25 14 WZW 1019,4 10
20.06.2018 17:00:00 25,7 15,4 15 8 - - W 1019,9 10
20.06.2018 16:00:00 25,1 15,0 13 7 29 16 WZW 1020,3 10
20.06.2018 15:00:00 25,2 15,6 13 7 29 16 W 1020,8 10
20.06.2018 14:00:00 24,0 14,6 13 7 - - W 1021,4 10
20.06.2018 13:00:00 22,7 15,2 11 6 29 16 WZW 1021,9 10
20.06.2018 12:00:00 20,8 14,6 13 7 25 14 ZW 1022,2 10
20.06.2018 11:00:00 19,1 14,8 13 7 - - ZW 1022,5 10
20.06.2018 10:00:00 17,9 14,5 14 8 25 14 ZZW 1022,9 25
20.06.2018 09:00:00 17,4 14,3 15 8 25 14 ZZW 1022,7 10
20.06.2018 08:00:00 17,1 14,6 15 8 - - ZW 1022,7 10
20.06.2018 07:00:00 16,7 14,3 16 9 25 14 ZW 1022,8 10
20.06.2018 06:00:00 17,0 14,3 11 6 18 10 ZW 1022,8 10
20.06.2018 05:00:00 17,0 14,6 8 4 - - ZW 1022,9 10
20.06.2018 04:00:00 17,1 14,7 11 6 18 10 WZW 1023,3 10
20.06.2018 03:00:00 17,5 14,9 11 6 14 8 W 1023,7 45
20.06.2018 02:00:00 18,1 15,3 5 3 - - WZW 1024,0 10
20.06.2018 01:00:00 18,2 15,3 8 4 7 4 ZZW 1024,1 10
20.06.2018 00:00:00 18,4 15,8 4 2 14 8 - 1024,4 10
19.06.2018 23:00:00 19,0 15,4 9 5 - - WZW 1024,6 10
19.06.2018 22:00:00 19,5 14,8 11 6 22 12 W 1024,2 10
19.06.2018 21:00:00 19,9 15,1 11 6 18 10 WZW 1024,0 30
19.06.2018 20:00:00 20,1 15,2 9 5 - - ZW 1024,1 10
19.06.2018 19:00:00 20,3 15,4 9 5 18 10 ZW 1024,3 10
19.06.2018 18:00:00 20,5 15,7 11 6 18 10 WZW 1024,5 30
19.06.2018 17:00:00 20,2 15,3 9 5 - - WZW 1024,6 10
19.06.2018 16:00:00 19,2 15,7 8 4 14 8 W 1024,9 10
19.06.2018 15:00:00 18,8 15,7 8 4 22 12 W 1025,0 6
19.06.2018 14:00:00 19,1 15,6 13 7 - - W 1024,9 10
19.06.2018 13:00:00 19,1 15,5 11 6 18 10 WZW 1024,7 10
19.06.2018 12:00:00 18,6 15,0 13 7 25 14 W 1024,5 10
19.06.2018 11:00:00 18,4 14,9 18 10 - - W 1024,4 10
19.06.2018 10:00:00 17,7 15,4 15 8 25 14 W 1024,2 10
19.06.2018 09:00:00 17,4 14,9 13 7 25 14 WZW 1023,5 10
19.06.2018 08:00:00 16,9 14,6 15 8 - - WZW 1023,2 10
19.06.2018 07:00:00 16,2 14,3 11 6 18 10 WZW 1023,0 10
19.06.2018 06:00:00 15,6 13,7 11 6 18 10 ZW 1022,7 10
19.06.2018 05:00:00 14,9 13,0 11 6 - - ZW 1022,2 17
19.06.2018 04:00:00 14,8 12,6 14 8 22 12 ZW 1022,1 21
19.06.2018 03:00:00 14,5 12,0 7 4 25 14 ZW 1022,0 26
19.06.2018 02:00:00 15,0 11,2 14 8 - - ZW 1021,7 30
19.06.2018 01:00:00 15,6 10,9 15 8 29 16 WZW 1021,7 10
19.06.2018 00:00:00 16,4 11,6 13 7 22 12 WZW 1021,9 10
18.06.2018 23:00:00 17,1 11,7 13 7 - - WZW 1021,9 10
18.06.2018 22:00:00 17,4 11,5 13 7 25 14 WZW 1021,3 10
18.06.2018 21:00:00 18,1 10,9 16 9 36 19 WZW 1021,0 10
18.06.2018 20:00:00 19,9 11,8 16 9 - - ZW 1020,9 10
18.06.2018 19:00:00 19,9 12,5 21 11 32 18 WZW 1020,6 10
18.06.2018 18:00:00 19,1 12,6 16 9 32 18 W 1020,9 10
18.06.2018 17:00:00 18,4 12,5 18 10 - - WZW 1021,3 10
18.06.2018 16:00:00 19,3 12,6 25 14 43 23 W 1021,1 25
18.06.2018 15:00:00 19,6 14,0 16 9 36 19 ZW 1020,6 10
18.06.2018 14:00:00 18,8 14,0 11 6 - - ZW 1020,8 10
18.06.2018 13:00:00 18,4 14,6 18 10 32 18 ZW 1020,8 10
18.06.2018 12:00:00 18,0 14,3 16 9 32 18 ZW 1020,5 10
18.06.2018 11:00:00 17,7 14,2 15 8 - - ZW 1020,3 10
18.06.2018 10:00:00 17,5 13,6 18 10 32 18 ZW 1019,9 10
18.06.2018 09:00:00 17,3 13,4 16 9 25 14 ZW 1019,5 10
18.06.2018 08:00:00 16,8 13,2 13 7 - - ZW 1019,5 10
18.06.2018 07:00:00 16,0 12,3 16 9 25 14 ZW 1019,6 10
18.06.2018 06:00:00 16,3 11,5 13 7 22 12 ZW 1019,4 10
18.06.2018 05:00:00 16,4 11,3 11 6 - - ZZW 1019,2 10
18.06.2018 04:00:00 16,2 11,2 11 6 18 10 ZW 1019,4 10
18.06.2018 03:00:00 16,0 10,9 11 6 22 12 ZZW 1019,5 10
18.06.2018 02:00:00 15,9 10,9 9 5 - - ZW 1019,9 10
18.06.2018 01:00:00 15,6 11,0 9 5 32 18 ZW 1020,1 10
18.06.2018 00:00:00 15,9 10,7 22 12 36 19 ZW 1020,3 30
17.06.2018 23:00:00 17,0 9,4 15 8 - - WZW 1020,0 10
17.06.2018 22:00:00 17,1 9,3 11 6 32 18 WZW 1019,8 10
17.06.2018 21:00:00 17,5 8,6 16 9 29 16 W 1019,6 10
17.06.2018 20:00:00 18,0 8,8 18 10 - - WZW 1019,1 10
17.06.2018 19:00:00 17,7 10,0 4 2 14 8 - 1018,9 10
17.06.2018 18:00:00 17,4 9,8 5 3 29 16 W 1019,0 10
17.06.2018 17:00:00 16,7 10,2 18 10 - - WZW 1019,1 10
17.06.2018 16:00:00 17,5 9,0 21 11 29 16 ZW 1018,9 10
17.06.2018 15:00:00 17,0 9,2 16 9 36 19 ZW 1018,7 10
17.06.2018 14:00:00 16,8 9,4 16 9 - - WZW 1018,4 10
17.06.2018 13:00:00 16,9 9,8 18 10 32 18 WZW 1018,3 10
17.06.2018 12:00:00 15,9 9,6 18 10 29 16 WZW 1018,1 10
17.06.2018 11:00:00 15,9 9,5 16 9 - - WZW 1018,1 10
17.06.2018 10:00:00 15,3 10,4 16 9 29 16 ZW 1018,0 10
17.06.2018 09:00:00 15,0 10,2 15 8 29 16 ZW 1017,5 10
17.06.2018 08:00:00 14,4 9,6 18 10 - - WZW 1016,8 10
17.06.2018 07:00:00 14,1 9,7 15 8 25 14 WZW 1016,5 10
17.06.2018 06:00:00 14,1 9,6 15 8 29 16 ZW 1016,4 10
17.06.2018 05:00:00 14,6 10,1 16 9 - - ZW 1016,4 10
17.06.2018 04:00:00 14,9 10,1 11 6 22 12 ZW 1016,2 10
17.06.2018 03:00:00 15,2 9,8 13 7 25 14 ZW 1016,3 10
17.06.2018 02:00:00 15,7 9,6 13 7 - - ZW 1016,1 10
17.06.2018 01:00:00 16,3 8,7 11 6 18 10 ZW 1016,1 10
17.06.2018 00:00:00 16,0 8,7 11 6 18 10 WZW 1016,3 45
16.06.2018 23:00:00 16,7 7,9 11 6 - - WZW 1016,3 10
16.06.2018 22:00:00 17,8 7,2 26 14 40 21 W 1016,1 10
16.06.2018 21:00:00 18,9 7,9 22 12 32 18 W 1015,7 10
16.06.2018 20:00:00 19,8 9,0 16 9 - - WZW 1015,4 10
16.06.2018 19:00:00 19,2 10,6 15 8 32 18 NW 1015,4 10
16.06.2018 18:00:00 19,4 11,3 18 10 32 18 NW 1015,3 10
16.06.2018 17:00:00 20,4 11,8 16 9 - - NW 1014,9 10
16.06.2018 16:00:00 21,3 9,6 22 12 32 18 WZW 1015,0 10
16.06.2018 15:00:00 22,4 9,9 18 10 32 18 WZW 1014,9 10
16.06.2018 14:00:00 21,9 9,8 18 10 - - ZW 1015,0 10
16.06.2018 13:00:00 21,0 10,0 11 6 25 14 ZZW 1015,6 10
16.06.2018 12:00:00 18,4 9,2 16 9 29 16 ZW 1016,2 10
16.06.2018 11:00:00 17,9 7,6 16 9 - - ZZW 1016,0 10
16.06.2018 10:00:00 16,8 7,6 11 6 18 10 ZZW 1015,8 10
16.06.2018 09:00:00 15,5 8,4 11 6 18 10 ZZW 1015,7 10
16.06.2018 08:00:00 14,7 7,6 9 5 - - WZW 1016,0 10
16.06.2018 07:00:00 14,4 7,6 11 6 14 8 ZW 1015,8 20
16.06.2018 06:00:00 14,5 9,3 11 6 14 8 WZW 1015,8 19
16.06.2018 05:00:00 15,1 11,2 7 4 - - ZW 1015,8 13
16.06.2018 04:00:00 15,7 11,2 7 4 14 8 W 1016,1 16
16.06.2018 03:00:00 16,2 12,8 11 6 11 6 W 1016,3 12
16.06.2018 02:00:00 16,3 13,9 7 4 - - W 1016,3 9
16.06.2018 01:00:00 16,7 13,7 7 4 14 8 W 1016,3 10
16.06.2018 00:00:00 17,7 13,6 9 5 18 10 NW 1016,3 10
15.06.2018 23:00:00 18,5 13,4 13 7 - - NW 1016,3 10
15.06.2018 22:00:00 19,1 13,4 16 9 29 16 NW 1016,0 10
15.06.2018 21:00:00 20,2 13,5 21 11 29 16 WNW 1015,9 10
15.06.2018 20:00:00 22,6 11,0 9 5 - - ZZW 1015,7 10
15.06.2018 19:00:00 23,2 10,3 9 5 18 10 WZW 1015,8 10
15.06.2018 18:00:00 24,3 10,7 9 5 22 12 - 1015,8 10
15.06.2018 17:00:00 23,1 9,3 11 6 - - ZZW 1015,8 30
15.06.2018 16:00:00 22,3 11,9 4 2 18 10 - 1016,4 10
15.06.2018 15:00:00 23,1 11,5 9 5 22 12 Z 1016,5 10
15.06.2018 14:00:00 21,4 11,8 4 2 - - - 1016,7 10
15.06.2018 13:00:00 21,4 11,9 8 4 14 8 ZW 1017,0 10
15.06.2018 12:00:00 20,6 12,3 9 5 18 10 ZO 1017,0 10
15.06.2018 11:00:00 19,1 12,9 4 2 - - - 1017,2 10
15.06.2018 10:00:00 17,9 12,7 9 5 14 8 ZZO 1017,2 10
15.06.2018 09:00:00 16,2 12,3 5 3 11 6 Z 1017,0 10
15.06.2018 08:00:00 14,6 12,0 8 4 - - ZW 1016,7 10
15.06.2018 07:00:00 13,2 11,5 5 3 11 6 ZW 1016,5 10
15.06.2018 06:00:00 12,1 10,8 4 2 11 6 - 1016,5 6
15.06.2018 05:00:00 13,0 11,6 8 4 - - ZW 1016,1 10
15.06.2018 04:00:00 11,5 10,6 4 2 7 4 Z 1016,2 7
15.06.2018 03:00:00 14,5 13,0 5 3 7 4 ZZW 1016,2 10
15.06.2018 02:00:00 15,2 13,2 5 3 - - Z 1016,4 10

tt = temperatuur
td = dauwpunt
ff = windsnelheid
fx = windstoten
dd = windrichting
ppp = luchtdruk
vv = zicht

Weerstations in de omgeving